This is the latest recevied weather packets stored in our database for station/object N5CNB-2. If no packets are shown the sender has not sent any weather packets the latest 10 day(s).
| Time | Temp. | Humidity | Pressure | Rain* | Wind** | Luminosity | Snow |
|---|---|---|---|---|---|---|---|
| 1777845654 | 25.56° C | 38% | 1018.7 hPa | 0 mm | - | - | - |
| 1777844749 | 25° C | 43% | 1018.9 hPa | 0 mm | - | - | - |
| 1777843867 | 26.11° C | 39% | 1019.2 hPa | 0 mm | - | - | - |
| 1777842956 | 25° C | 43% | 1019.4 hPa | 0 mm | - | - | - |
| 1777842057 | 25.56° C | 40% | 1019.7 hPa | 0 mm | - | - | - |
| 1777841155 | 26.11° C | 44% | 1019.8 hPa | 0 mm | - | - | - |
| 1777840261 | 24.44° C | 47% | 1020.2 hPa | 0 mm | - | - | - |
| 1777839350 | 25.56° C | 43% | 1020.3 hPa | 0 mm | - | - | - |
| 1777838456 | 25° C | 44% | 1020.6 hPa | 0 mm | - | - | - |
| 1777837554 | 25.56° C | 42% | 1020.8 hPa | 0 mm | - | - | - |
| 1777836667 | 25.56° C | 44% | 1021 hPa | 0 mm | - | - | - |
| 1777835761 | 26.11° C | 43% | 1021.1 hPa | 0 mm | - | - | - |
| 1777834856 | 25.56° C | 43% | 1021.3 hPa | 0 mm | - | - | - |
| 1777833964 | 25.56° C | 45% | 1021.5 hPa | 0 mm | - | - | - |
| 1777833064 | 25° C | 46% | 1021.7 hPa | 0 mm | - | - | - |
| 1777832168 | 25° C | 43% | 1022 hPa | 0 mm | - | - | - |
| 1777831253 | 25° C | 42% | 1022 hPa | 0 mm | - | - | - |
| 1777830354 | 25° C | 43% | 1022.3 hPa | 0 mm | - | - | - |
| 1777829460 | 25° C | 49% | 1022.6 hPa | 0 mm | - | - | - |
| 1777828556 | 24.44° C | 46% | 1022.7 hPa | 0 mm | - | - | - |
| 1777827654 | 24.44° C | 49% | 1022.9 hPa | 0 mm | - | - | - |
| 1777826755 | 23.89° C | 48% | 1023.1 hPa | 0 mm | - | - | - |
| 1777825867 | 23.89° C | 52% | 1023.2 hPa | 0 mm | - | - | - |
| 1777824956 | 23.33° C | 50% | 1023.1 hPa | 0 mm | - | - | - |
| 1777824050 | 22.78° C | 55% | 1023.1 hPa | 0 mm | - | - | - |
* Rain latest hour (hover to see other rain measurements)
** Current wind speed in m/s (hover to see current wind gust speed)